Record,Date/Time,10,Tamb(K),Rh(%),Pres(mb),Tir(K),Rain,Az(deg),El(deg),TkBB(K), Ch  22.234, Ch  23.034, Ch  23.834, Ch  26.234, Ch  30.000, Ch  51.248, Ch  52.280, Ch  53.848, Ch  54.940, Ch  56.660, Ch  57.288, Ch  58.800, Ch 
Record,Date/Time,40,Tamb(K),Rh(%),Pres(mb),Tir(K),Rain
Record,Date/Time,50,Az(deg),El(deg),TkBB(K), Ch  22.000, Ch  22.234, Ch  22.500, Ch  23.000, Ch  23.034, Ch  23.500, Ch  23.834, Ch  24.000, Ch  24.500, Ch  25.000, Ch  25.500, Ch  26.000, Ch  26.234, Ch  26.500, Ch  27.000, Ch  27.500, Ch  28.000, Ch  28.500, Ch  29.000, Ch  29.500, Ch  30.000, Ch  51.248, Ch  51.760, Ch  52.280, Ch  52.804, Ch  53.336, Ch  53.848, Ch  54.400, Ch  54.940, Ch  55.500, Ch  56.020, Ch  56.660, Ch  57.288, Ch  57.964, Ch  58.800, Ch 
Record,Date/Time,80,ID,SNR,Tamb(K),Rh(%),Pres(mb),Tir(K),Rain,Az(deg),El(deg),TkBB(K), Ch  22.234, Ch  23.034, Ch  23.834, Ch  26.234, Ch  30.000, Ch  51.248, Ch  52.280, Ch  53.848, Ch  54.940, Ch  56.660, Ch  57.288, Ch  58.800, Ch 
     1,04/09/19 00:04:46,41, 291.7570,  73.5900,1021.0300, 243.3700,1
     2,04/09/19 00:05:29,51,  0.00, 19.80,303.893,118.372,122.789,122.933,119.158,119.112,112.589,106.582,103.524, 94.845, 86.045, 81.380, 74.542, 73.268, 71.227, 68.973, 66.674, 63.617, 62.801, 61.833, 61.519, 62.862,227.093,243.454,261.337,275.227,284.725,288.996,290.161,290.581,291.545,290.983,291.409,290.557,291.255,291.693,
     3,04/09/19 00:05:51,51,  0.00, 90.00,303.962, 48.304, 50.056, 50.327, 48.516, 49.103, 45.628, 43.242, 41.950, 38.527, 34.760, 32.745, 30.017, 29.355, 28.568, 28.404, 27.097, 25.469, 25.548, 25.257, 24.398, 26.067,121.422,138.372,162.226,191.934,226.138,257.824,277.736,285.220,287.617,287.278,288.530,286.230,289.175,289.783,
     4,04/09/19 00:06:14,51,  0.00,160.20,303.948,113.211,117.357,117.368,113.947,113.809,107.141,101.658, 98.745, 90.133, 82.454, 76.982, 71.152, 69.602, 67.576, 65.908, 63.126, 60.595, 59.557, 59.388, 58.108, 59.899,221.105,238.205,257.205,272.727,283.487,288.599,290.118,291.066,291.701,291.039,292.074,290.514,291.716,292.318,
     5,04/09/19 00:06:38,41, 291.5620,  73.7600,1020.9980, 240.8400,1
     6,04/09/19 00:07:21,51,  0.00, 19.80,303.961,119.283,122.588,123.187,119.457,119.309,113.123,107.100,104.753, 95.459, 87.158, 81.538, 75.269, 73.540, 71.594, 69.082, 66.850, 64.611, 63.519, 61.655, 61.540, 62.768,227.505,244.021,261.045,275.205,284.522,288.224,289.760,290.774,291.510,290.815,291.493,290.659,291.940,291.414,
     7,04/09/19 00:07:44,51,  0.00, 90.00,303.990, 48.809, 50.207, 50.311, 48.839, 48.815, 45.957, 43.398, 42.760, 38.806, 35.244, 33.154, 30.060, 29.445, 28.479, 27.799, 27.083, 26.038, 25.666, 24.932, 24.813, 25.542,121.791,138.912,162.444,192.121,226.800,257.635,277.530,285.589,288.118,287.203,288.895,286.637,289.319,289.023,
     8,04/09/19 00:08:06,51,  0.00,160.20,304.022,113.946,116.922,117.791,113.857,113.774,107.473,102.185, 99.471, 90.645, 82.880, 77.263, 71.370, 69.930, 67.679, 65.894, 63.377, 61.366, 60.150, 58.740, 58.513, 59.792,221.445,238.940,257.603,272.931,283.922,288.490,289.403,290.730,291.331,291.003,291.334,290.776,292.196,291.609,
     9,04/09/19 00:08:29,41, 291.4910,  73.8300,1021.1160, 247.7700,1
    10,04/09/19 00:09:12,51,  0.00, 19.80,304.043,119.288,123.158,123.687,119.907,119.733,112.807,107.298,104.667, 95.696, 86.840, 81.345, 75.071, 74.227, 71.868, 69.376, 67.313, 64.361, 63.255, 61.802, 62.132, 63.072,227.225,243.735,260.865,275.642,284.803,288.725,289.654,290.830,291.440,290.889,291.511,289.729,291.902,291.686,
    11,04/09/19 00:09:35,51,  0.00, 90.00,304.058, 48.905, 50.400, 50.792, 49.023, 49.245, 45.645, 43.461, 41.978, 37.974, 34.696, 32.507, 30.126, 29.902, 28.883, 27.715, 27.095, 25.641, 25.816, 25.271, 25.286, 26.185,121.661,138.179,161.689,192.598,226.455,257.284,277.586,285.340,288.059,287.333,288.750,285.973,289.383,289.115,
    12,04/09/19 00:09:57,51,  0.00,160.20,304.081,113.745,117.375,117.539,113.716,114.125,106.626,101.739, 98.904, 90.359, 82.424, 76.615, 70.840, 70.244, 68.137, 65.869, 63.750, 60.885, 59.847, 58.880, 58.504, 60.015,221.391,238.409,257.132,273.342,283.512,288.051,289.657,291.058,291.778,290.637,291.567,289.831,291.913,291.401,
    13,04/09/19 00:10:21,41, 291.1870,  75.2800,1021.0800, 243.7100,1
    14,04/09/19 00:11:04,51,  0.00, 19.80,304.041,119.016,122.893,123.324,119.819,119.709,112.710,107.200,104.537, 95.845, 86.948, 81.762, 75.637, 74.159, 72.013, 69.614, 67.210, 64.590, 63.308, 62.023, 62.056, 62.885,227.612,243.667,260.928,275.052,284.236,288.283,289.589,291.088,291.811,290.394,291.134,290.338,291.461,290.830,
    15,04/09/19 00:11:27,51,  0.00, 90.00,304.078, 48.585, 49.902, 50.591, 49.072, 48.779, 45.199, 43.117, 42.435, 38.373, 35.359, 32.682, 30.589, 29.925, 29.200, 28.361, 27.173, 26.383, 25.843, 25.245, 25.766, 25.651,122.258,138.781,162.508,192.007,226.247,257.115,276.839,285.236,288.186,287.160,288.646,286.412,288.816,289.152,
    16,04/09/19 00:11:49,51,  0.00,160.20,304.081,113.494,116.923,117.136,113.766,113.553,106.739,101.315, 98.915, 90.409, 83.130, 76.889, 71.448, 70.094, 67.790, 65.988, 63.337, 61.433, 59.799, 59.097, 58.717, 59.641,221.434,238.665,257.246,273.013,283.574,288.024,289.418,290.640,292.024,290.360,291.216,290.153,291.455,291.490,
    17,04/09/19 00:12:13,41, 290.8660,  76.5600,1021.1140, 240.7400,1
    18,04/09/19 00:12:56,51,  0.00, 19.80,303.991,119.326,123.370,123.509,119.714,119.963,113.080,107.550,104.475, 95.429, 87.531, 82.097, 75.512, 73.796, 71.608, 69.577, 67.659, 64.392, 63.471, 61.966, 62.440, 63.036,227.800,244.121,261.040,275.471,284.374,288.239,290.026,290.973,291.370,290.804,291.426,289.986,291.820,291.584,
    19,04/09/19 00:13:19,51,  0.00, 90.00,303.981, 49.125, 50.975, 50.933, 49.441, 49.662, 46.455, 44.105, 42.902, 38.893, 35.912, 33.432, 30.980, 30.094, 29.203, 28.268, 27.345, 25.958, 26.230, 25.550, 25.959, 26.512,122.237,138.795,162.589,192.823,226.221,257.569,277.524,286.089,287.886,287.504,288.888,286.378,289.674,289.169,
    20,04/09/19 00:13:41,51,  0.00,160.20,303.952,113.914,117.578,117.397,114.647,114.370,107.215,101.941, 99.207, 90.419, 83.325, 77.551, 71.619, 69.930, 68.132, 65.935, 63.777, 61.420, 60.319, 58.906, 59.189, 60.030,221.799,238.548,257.093,273.182,283.445,288.039,289.962,291.067,291.426,290.593,290.999,289.921,291.889,291.121,
    21,04/09/19 00:14:05,41, 290.6010,  76.9900,1021.0520, 244.3200,1
    22,04/09/19 00:14:48,51,  0.00, 19.80,303.881,119.449,123.220,123.455,119.275,119.965,112.727,107.328,104.450, 95.500, 87.070, 81.929, 75.348, 73.987, 72.283, 69.600, 67.394, 64.706, 63.341, 62.203, 62.182, 63.238,227.423,243.719,261.188,275.592,284.449,288.365,290.717,291.103,291.466,291.364,291.182,290.458,291.451,290.717,
    23,04/09/19 00:15:11,51,  0.00, 90.00,303.885, 49.384, 50.966, 50.890, 49.054, 49.546, 46.188, 43.662, 42.667, 38.801, 35.712, 33.036, 30.437, 30.136, 29.266, 28.636, 27.199, 26.451, 26.082, 25.776, 26.060, 26.013,121.939,138.790,162.513,192.684,226.222,257.461,278.313,285.851,288.213,287.430,288.695,286.023,289.183,288.925,
    24,04/09/19 00:15:33,51,  0.00,160.20,303.849,113.851,117.624,117.770,113.591,114.334,107.603,101.791, 99.450, 90.761, 83.230, 77.347, 71.552, 70.433, 68.393, 66.170, 63.827, 61.574, 60.098, 59.441, 58.787, 59.941,221.769,238.652,257.320,273.476,283.723,288.234,290.471,290.270,291.406,291.110,291.550,289.873,291.526,291.052,
    25,04/09/19 00:15:57,41, 290.3620,  78.2200,1021.0040, 235.2200,1
    26,04/09/19 00:16:41,51,  0.00, 19.80,303.737,118.966,123.255,123.370,119.748,119.419,112.727,107.404,104.982, 95.670, 87.381, 81.803, 75.678, 73.694, 71.642, 69.614, 67.269, 64.702, 63.687, 62.532, 62.152, 62.835,227.352,243.953,260.952,275.181,284.865,288.912,290.449,291.027,292.091,291.636,291.728,290.476,291.556,292.357,
    27,04/09/19 00:17:03,51,  0.00, 90.00,303.730, 48.554, 50.684, 50.617, 48.682, 48.742, 45.776, 43.689, 43.109, 39.079, 35.393, 32.904, 30.594, 29.864, 28.732, 28.629, 27.391, 26.462, 26.174, 25.962, 25.468, 26.136,121.799,138.543,161.896,191.739,226.522,257.802,277.838,285.209,288.251,287.184,288.509,286.525,288.967,289.999,
    28,04/09/19 00:17:25,51,  0.00,160.20,303.748,113.927,117.985,118.097,114.361,114.234,107.445,102.311, 99.839, 91.021, 83.644, 77.760, 72.285, 70.340, 67.873, 66.585, 63.919, 61.593, 60.376, 59.538, 58.845, 60.303,221.384,238.413,257.048,272.242,283.601,288.386,289.651,291.046,291.522,290.948,291.577,290.971,291.480,292.099,
    29,04/09/19 00:17:49,41, 290.8660,  77.1700,1020.9040, 243.9000,1
    30,04/09/19 00:18:33,51,  0.00, 19.80,303.704,118.849,122.514,123.213,119.171,119.375,112.707,106.554,104.240, 95.209, 86.721, 81.048, 75.249, 73.708, 71.346, 69.214, 67.183, 64.277, 63.285, 61.655, 62.479, 63.393,227.358,243.767,260.932,275.693,284.420,288.554,289.917,290.906,292.012,291.441,291.432,289.913,291.896,291.572,
    31,04/09/19 00:18:55,51,  0.00, 90.00,303.711, 48.744, 49.968, 50.344, 48.787, 49.225, 45.875, 43.054, 42.569, 38.452, 35.324, 32.460, 30.233, 29.862, 29.058, 28.357, 27.390, 26.415, 26.250, 25.443, 26.066, 26.357,121.954,138.803,162.127,192.390,226.265,257.711,277.419,285.417,288.098,287.982,288.614,286.485,289.268,289.494,
    32,04/09/19 00:19:17,51,  0.00,160.20,303.726,113.724,117.499,117.602,113.841,114.197,107.415,101.438, 99.299, 90.442, 83.228, 76.773, 71.403, 70.191, 67.701, 66.068, 63.865, 61.576, 59.984, 59.302, 58.975, 60.011,221.645,238.559,257.077,272.985,283.897,288.437,290.236,290.687,292.316,291.866,291.585,290.150,292.120,291.737,
    33,04/09/19 00:19:41,41, 291.2300,  75.6700,1020.9420, 245.6300,1
    34,04/09/19 00:20:25,51,  0.00, 19.80,303.733,119.348,123.183,123.580,119.880,119.666,112.621,107.270,104.575, 95.584, 87.417, 81.246, 75.240, 74.077, 72.049, 69.144, 67.338, 64.841, 63.475, 62.112, 61.959, 62.877,227.515,244.279,261.557,275.916,284.491,288.472,290.016,291.378,292.226,290.709,291.773,290.779,291.770,292.370,
    35,04/09/19 00:20:47,51,  0.00, 90.00,303.746, 48.438, 50.176, 50.240, 48.496, 48.810, 45.077, 43.130, 41.931, 38.424, 35.116, 31.748, 29.759, 29.439, 29.175, 27.638, 26.941, 25.803, 25.692, 25.537, 25.295, 25.680,121.710,138.868,162.483,192.239,226.734,257.245,277.754,286.124,288.559,287.267,288.591,286.530,289.567,290.064,
    36,04/09/19 00:21:09,51,  0.00,160.20,303.755,113.018,116.582,116.955,113.300,113.162,106.056,100.893, 98.590, 90.093, 82.726, 76.331, 70.791, 70.058, 68.007, 65.360, 63.247, 61.318, 59.715, 58.847, 58.420, 59.676,221.584,238.595,257.331,273.344,284.019,287.994,290.117,291.028,292.456,291.095,291.859,290.823,291.925,291.868,
    37,04/09/19 00:21:33,41, 291.6320,  74.4800,1020.9420, 246.5500,1
    38,04/09/19 00:22:16,51,  0.00, 19.80,303.774,119.388,123.343,123.980,119.631,119.484,112.755,107.498,104.521, 95.750, 86.956, 82.132, 75.900, 74.255, 71.600, 69.712, 67.120, 64.785, 63.456, 62.064, 61.431, 62.649,227.793,243.200,260.924,275.238,284.650,288.140,290.012,291.166,291.548,291.217,291.592,290.364,291.269,291.493,
    39,04/09/19 00:22:39,51,  0.00, 90.00,303.797, 48.599, 50.423, 50.652, 48.197, 48.240, 45.516, 43.169, 41.910, 38.132, 35.019, 32.682, 30.424, 29.798, 28.295, 27.700, 26.501, 26.182, 25.547, 25.171, 24.953, 25.558,121.480,137.727,161.762,192.413,226.239,256.967,277.513,285.529,287.732,287.299,288.388,286.116,288.711,288.557,
    40,04/09/19 00:23:01,51,  0.00,160.20,303.804,113.001,116.720,117.386,113.400,113.207,106.375,101.535, 98.637, 89.965, 82.785, 76.912, 71.261, 69.909, 67.307, 65.672, 63.028, 61.046, 59.477, 59.135, 58.178, 59.535,221.311,237.440,257.117,273.050,283.328,288.078,289.714,290.862,291.500,291.412,291.245,290.277,291.635,291.839,
    41,04/09/19 00:23:25,41, 291.7570,  73.9500,1021.0020, 246.7600,1
    42,04/09/19 00:24:08,51,  0.00, 19.80,303.855,119.659,123.452,123.654,119.803,119.868,113.329,107.852,105.029, 95.728, 87.249, 81.933, 75.565, 74.142, 71.626, 69.488, 67.381, 64.579, 63.394, 62.016, 61.859, 62.850,227.567,244.205,260.788,275.661,284.344,288.196,289.660,291.749,291.841,291.287,291.891,290.800,292.392,291.821,
    43,04/09/19 00:24:31,51,  0.00, 90.00,303.880, 48.649, 50.158, 50.299, 48.459, 48.845, 45.738, 43.586, 42.541, 37.917, 34.902, 32.505, 30.026, 29.452, 28.210, 27.769, 27.013, 25.608, 25.916, 24.651, 25.066, 25.558,121.214,138.209,162.019,191.810,226.291,257.468,277.604,286.105,287.922,287.719,288.873,286.209,289.494,289.652,
    44,04/09/19 00:24:53,51,  0.00,160.20,303.907,112.945,116.954,116.792,113.286,113.380,106.575,101.448, 98.505, 89.821, 82.682, 76.370, 71.224, 69.755, 67.517, 65.564, 63.400, 60.797, 59.649, 58.222, 58.203, 59.306,221.603,238.384,256.941,272.762,283.336,288.035,289.592,291.284,291.782,291.678,291.902,290.635,292.560,291.489,
    45,04/09/19 00:25:17,41, 292.1750,  72.1100,1020.9840, 234.8300,1
    46,04/09/19 00:26:00,51,  0.00, 19.80,303.986,118.438,123.029,123.344,118.972,119.522,112.575,107.474,104.155, 95.978, 87.234, 81.910, 74.903, 73.561, 71.626, 69.453, 67.211, 64.475, 63.262, 61.551, 61.671, 62.910,227.414,243.536,260.921,275.543,284.808,288.505,289.906,290.906,291.944,291.080,291.498,290.488,291.636,292.851,
    47,04/09/19 00:26:23,51,  0.00, 90.00,304.010, 48.540, 50.316, 50.769, 48.447, 48.946, 45.649, 43.123, 41.983, 38.659, 34.973, 32.642, 29.894, 29.391, 28.467, 28.028, 26.901, 25.652, 25.381, 24.667, 25.164, 25.705,121.253,137.790,161.792,192.570,226.511,257.541,277.304,285.482,287.872,286.830,288.894,286.159,289.077,290.688,
    48,04/09/19 00:26:45,51,  0.00,160.20,304.036,112.491,116.638,116.860,112.574,113.535,106.552,101.347, 98.655, 90.493, 82.887, 76.924, 71.050, 69.944, 67.725, 66.044, 63.516, 61.007, 59.801, 58.328, 58.584, 59.565,221.202,238.059,256.742,272.986,283.924,288.484,290.453,290.782,291.680,290.718,292.038,290.448,292.083,292.880,
    49,04/09/19 00:27:09,41, 292.1090,  72.1800,1021.0320, 236.2000,1
    50,04/09/19 00:27:53,51,  0.00, 19.80,304.060,119.005,122.861,123.722,119.713,119.470,113.418,107.124,104.373, 95.356, 87.336, 82.051, 75.349, 73.676, 72.084, 69.679, 67.610, 64.471, 63.559, 61.950, 62.423, 63.458,227.871,243.654,261.676,275.685,284.742,288.253,290.205,290.959,291.601,291.298,292.028,289.999,292.245,291.973,
    51,04/09/19 00:28:15,51,  0.00, 90.00,304.091, 48.733, 50.536, 50.812, 49.009, 48.687, 45.883, 43.105, 42.090, 38.141, 35.035, 33.044, 30.188, 29.446, 28.525, 28.147, 27.161, 25.817, 25.488, 25.117, 25.770, 25.393,121.692,137.937,162.041,192.326,226.255,257.255,277.711,285.327,288.315,286.882,288.802,285.746,289.606,289.769,
    52,04/09/19 00:28:37,51,  0.00,160.20,304.082,112.907,116.330,116.924,113.322,113.202,106.840,101.178, 98.449, 89.816, 82.750, 77.053, 71.229, 69.493, 67.217, 65.901, 63.370, 61.182, 60.105, 58.814, 58.811, 59.617,221.647,238.111,257.169,273.288,283.670,287.987,289.922,290.958,291.591,290.731,291.543,289.969,292.019,291.837,
    53,04/09/19 00:29:01,41, 291.8000,  72.7700,1021.0200, 240.1800,1
    54,04/09/19 00:29:44,51,  0.00, 19.80,304.021,119.300,122.744,123.518,119.704,119.673,112.526,107.374,104.868, 95.584, 87.466, 81.410, 75.759, 74.249, 72.328, 69.650, 67.672, 65.095, 63.545, 62.184, 62.471, 63.655,227.742,244.198,261.035,275.801,284.398,288.056,290.096,291.103,291.627,290.646,291.657,290.355,291.773,292.036,
    55,04/09/19 00:30:07,51,  0.00, 90.00,304.048, 48.984, 49.981, 50.513, 48.413, 48.948, 45.213, 43.185, 42.266, 38.501, 35.141, 32.221, 30.660, 29.819, 28.874, 27.908, 27.243, 26.091, 25.538, 24.818, 25.432, 25.549,121.743,138.879,161.725,192.144,226.547,257.386,277.420,285.497,288.197,287.583,288.879,286.772,289.556,289.825,
    56,04/09/19 00:30:29,51,  0.00,160.20,304.053,113.720,116.760,117.249,113.775,113.466,106.627,101.573, 98.990, 90.210, 82.987, 76.667, 71.713, 70.085, 67.996, 65.843, 63.976, 61.669, 60.007, 59.129, 58.812, 60.351,221.529,238.652,256.760,273.092,283.953,287.861,289.470,291.027,291.539,291.250,291.858,290.591,291.617,292.106,
    57,04/09/19 00:30:53,41, 291.3820,  74.0600,1021.0080, 238.2900,1
    58,04/09/19 00:31:36,51,  0.00, 19.80,303.981,118.866,123.448,123.835,120.078,119.727,112.830,107.259,104.168, 95.748, 87.446, 82.107, 75.838, 74.352, 72.099, 69.566, 67.364, 64.827, 63.766, 61.994, 62.729, 63.459,227.895,244.110,260.778,275.626,284.489,288.419,290.822,291.300,291.357,291.094,291.246,290.533,291.618,290.764,
    59,04/09/19 00:31:58,51,  0.00, 90.00,303.974, 48.364, 50.619, 51.190, 48.851, 49.292, 45.862, 43.445, 42.274, 38.448, 35.213, 33.160, 30.456, 30.037, 28.437, 28.157, 27.233, 25.931, 25.645, 24.753, 25.331, 25.749,121.782,138.348,161.722,192.476,226.509,257.586,277.813,286.199,287.659,286.796,288.432,286.260,288.983,288.605,
    60,04/09/19 00:32:21,51,  0.00,160.20,303.988,113.099,117.070,117.457,113.436,113.861,106.634,101.578, 98.762, 90.388, 82.822, 77.180, 71.446, 70.332, 67.636, 65.885, 63.346, 61.151, 59.981, 58.744, 59.161, 59.635,221.509,238.494,256.541,273.028,283.385,288.270,290.238,290.991,291.331,290.393,291.467,290.539,292.033,291.595,
    61,04/09/19 00:32:45,41, 291.2690,  74.8500,1020.9300, 239.3700,1
    62,04/09/19 00:33:28,51,  0.00, 19.80,303.875,118.927,122.836,123.253,119.284,119.360,112.764,107.250,103.928, 95.782, 87.086, 81.905, 75.196, 74.050, 72.246, 69.102, 67.431, 64.654, 63.150, 61.940, 62.013, 62.740,227.694,243.689,261.047,275.587,284.783,288.399,290.054,290.904,291.765,290.484,291.911,290.792,291.971,291.639,
    63,04/09/19 00:33:50,51,  0.00, 90.00,303.898, 48.760, 50.519, 50.623, 48.993, 49.253, 46.071, 43.811, 41.921, 38.790, 35.355, 32.950, 30.234, 30.079, 28.661, 27.960, 26.966, 25.927, 25.810, 25.135, 25.432, 25.708,122.005,138.619,161.859,191.912,226.592,257.611,277.722,285.597,288.644,286.782,289.000,287.026,289.688,289.567,
    64,04/09/19 00:34:13,51,  0.00,160.20,303.899,113.204,117.037,116.974,113.573,114.124,106.976,101.515, 98.491, 90.254, 83.005, 77.226, 71.401, 70.346, 67.962, 65.867, 63.857, 61.334, 60.076, 59.073, 58.732, 59.751,221.778,238.246,256.999,272.921,283.696,288.331,290.024,291.238,292.024,291.317,291.819,290.776,292.074,292.138,
    65,04/09/19 00:34:37,41, 291.2570,  74.8200,1020.8880, 237.3700,1
    66,04/09/19 00:35:21,51,  0.00, 19.80,303.840,118.847,122.842,122.869,119.449,119.464,112.942,107.016,104.457, 95.435, 86.818, 81.589, 75.104, 74.239, 71.798, 69.426, 67.500, 64.857, 63.548, 61.604, 62.315, 62.740,227.589,243.988,260.616,275.777,284.398,288.963,290.204,291.943,292.019,290.412,291.753,290.451,291.622,292.292,
    67,04/09/19 00:35:43,51,  0.00, 90.00,303.838, 48.837, 50.838, 50.649, 48.969, 49.254, 46.473, 43.760, 42.727, 38.728, 35.396, 33.071, 30.343, 29.996, 28.942, 28.041, 27.439, 26.166, 25.800, 24.637, 24.567, 25.920,122.057,138.825,161.957,192.721,226.577,258.441,278.111,286.301,288.108,287.295,289.516,286.512,289.288,289.925,
    68,04/09/19 00:36:05,51,  0.00,160.20,303.850,113.278,117.026,116.895,113.609,113.693,106.692,101.577, 99.021, 90.020, 82.522, 76.876, 71.111, 70.191, 67.781, 65.741, 63.432, 61.551, 59.786, 58.583, 58.445, 60.170,221.851,238.457,256.657,273.207,283.679,289.212,290.187,292.031,291.894,290.953,292.384,290.327,291.860,292.032,
    69,04/09/19 00:36:29,41, 290.8660,  75.1100,1021.0280, 234.7800,1
    70,04/09/19 00:37:13,51,  0.00, 19.80,303.729,119.509,123.367,124.011,119.992,119.826,113.411,107.520,105.153, 96.519, 88.100, 82.522, 76.354, 74.546, 72.623, 70.187, 67.988, 65.094, 64.331, 62.644, 62.626, 63.896,228.045,244.405,261.389,275.275,284.254,287.631,289.456,289.689,290.230,289.632,289.582,288.398,289.921,290.117,
    71,04/09/19 00:37:35,51,  0.00, 90.00,303.755, 49.456, 51.488, 51.860, 49.619, 49.832, 46.440, 44.129, 43.053, 39.392, 35.968, 33.657, 30.807, 30.345, 29.374, 28.733, 27.924, 26.492, 26.543, 25.695, 25.702, 26.311,122.307,139.237,162.792,192.357,226.846,257.662,277.871,285.205,287.261,287.122,287.874,285.110,288.198,287.493,
    72,04/09/19 00:37:57,51,  0.00,160.20,303.714,112.840,116.772,117.283,113.250,113.159,106.758,101.564, 98.868, 90.683, 83.170, 76.885, 71.379, 70.045, 67.808, 65.931, 64.111, 61.455, 60.209, 58.945, 58.806, 59.827,221.288,238.493,257.042,272.429,283.411,287.447,289.120,290.468,290.495,289.938,289.689,287.976,290.065,290.113,
    73,04/09/19 00:38:21,41, 289.9170,  78.4600,1021.1760, 239.2300,1
    74,04/09/19 00:39:05,51,  0.00, 19.80,303.565,119.731,123.410,123.831,119.985,120.107,113.483,107.851,105.032, 96.328, 87.631, 82.510, 76.088, 74.810, 72.394, 70.108, 68.091, 65.463, 64.302, 62.850, 62.631, 63.853,228.154,244.368,261.318,276.083,283.973,287.996,288.964,290.214,289.998,289.928,289.761,288.466,289.803,289.899,
    75,04/09/19 00:39:27,51,  0.00, 90.00,303.556, 49.813, 51.345, 51.965, 50.289, 50.535, 46.909, 44.629, 43.641, 39.655, 35.834, 33.838, 31.306, 31.150, 29.834, 29.166, 28.178, 27.300, 27.086, 26.430, 26.436, 27.034,123.008,139.792,163.092,193.268,226.774,257.496,277.675,285.213,287.150,286.305,287.820,285.064,288.031,288.235,
    76,04/09/19 00:39:49,51,  0.00,160.20,303.481,113.398,117.320,117.520,113.906,113.950,107.103,101.902, 99.594, 91.147, 83.414, 77.718, 71.865, 70.693, 68.521, 66.169, 64.190, 62.274, 60.618, 59.679, 58.867, 60.626,222.221,238.924,257.461,272.947,283.049,288.010,289.112,289.883,289.948,289.548,289.739,288.101,289.666,289.766,
    77,04/09/19 00:40:13,41, 289.2450,  80.8900,1021.1980, 243.6700,1
    78,04/09/19 00:40:56,51,  0.00, 19.80,303.328,119.297,123.145,123.753,119.652,119.265,113.103,107.644,104.906, 96.246, 87.893, 82.512, 76.007, 74.861, 72.587, 70.401, 67.715, 65.634, 64.427, 62.816, 62.638, 63.661,227.955,243.926,261.259,275.094,283.910,287.802,289.168,290.115,290.447,290.108,289.830,288.270,289.880,290.147,
    79,04/09/19 00:41:19,51,  0.00, 90.00,303.283, 50.743, 52.416, 52.891, 51.169, 50.696, 47.693, 45.444, 44.133, 40.395, 36.994, 34.836, 32.186, 31.751, 30.528, 30.223, 28.961, 27.790, 27.824, 27.514, 27.523, 27.928,123.505,139.771,163.413,193.168,227.150,257.923,277.504,285.142,287.452,286.729,288.056,285.347,288.188,288.335,
    80,04/09/19 00:41:41,51,  0.00,160.20,303.228,114.454,117.709,118.399,114.674,114.670,107.781,103.056,100.219, 91.865, 84.103, 78.355, 72.501, 71.765, 69.152, 67.491, 64.534, 62.753, 61.437, 60.559, 59.926, 61.283,222.196,238.808,257.438,272.826,283.375,287.497,289.730,289.985,290.195,289.622,289.490,288.859,289.704,289.465,
    81,04/09/19 00:42:04,41, 289.1360,  82.2300,1021.2740, 253.1900,1
    82,04/09/19 00:42:48,51,  0.00, 19.80,303.099,118.894,123.041,123.755,119.882,119.916,112.993,107.753,104.708, 96.215, 87.387, 82.882, 76.093, 74.704, 72.165, 69.881, 68.143, 65.374, 64.203, 62.803, 63.360, 63.803,227.927,243.635,261.234,275.036,284.194,287.634,288.956,289.460,290.133,289.130,289.429,288.341,289.035,289.104,
    83,04/09/19 00:43:10,51,  0.00, 90.00,303.069, 51.205, 52.532, 53.505, 51.618, 51.689, 48.076, 46.043, 44.568, 41.068, 37.016, 35.426, 32.818, 32.381, 30.820, 30.168, 29.359, 28.479, 27.889, 27.538, 28.241, 27.849,123.897,140.155,163.658,193.446,227.098,257.585,276.969,284.533,286.284,285.768,287.235,285.289,287.445,287.394,
    84,04/09/19 00:43:33,51,  0.00,160.20,303.019,114.006,117.912,118.412,114.779,115.008,107.948,103.188,100.066, 91.542, 84.063, 78.727, 73.026, 71.723, 69.169, 67.282, 65.156, 63.057, 61.301, 60.376, 60.045, 61.154,222.581,238.517,256.990,272.676,282.806,287.018,288.595,288.984,289.062,288.875,289.140,288.278,289.013,288.621,
    85,04/09/19 00:43:56,41, 289.1480,  82.7100,1021.3280, 258.5300,1
    86,04/09/19 00:44:40,51,  0.00, 19.80,302.938,119.338,123.246,123.750,119.839,119.808,113.114,107.831,104.926, 96.412, 87.500, 82.815, 76.172, 75.065, 72.870, 70.799, 68.120, 65.820, 64.519, 63.542, 62.893, 64.552,228.113,244.080,261.085,275.452,284.235,287.873,288.802,289.737,289.770,289.550,289.908,288.227,289.055,289.409,